[[{"header":{"parameterUnit":"m.s-1","parameterCategory":2,"la1":30.2991,"la2":30.254,"lo1":-89.0895,"lo2":-89.0444,"dy":0.0017,"dx":0.0017,"nx":28,"ny":28,"refTime":"2025-08-27T03:00:00:Z","depth":"0","parameterNumber":2,"parameterNumberName":"U-component_of_CURRENTS"},"data":[0,0,0,0,0,0,0,0,0,0,0,0,0,0,0,0,0,0,0,0,0,0,0,0,0,0,0,0,0,0,0,0,0,0,0,0,0,0,0,0,0,0,0,0,0,0,0,0,0,0,0,0,0,0,0,0,0,0,0.1771,0.1771,0,0.1741,0.1741,0.174,0.1691,0.169,0.169,0.1689,0.1655,0.1655,0.1655,0,0,0,0,0,0,0,0,0,0,0,0,0,0.1795,0.1794,0.1771,0.1771,0.177,0.1741,0.1741,0.174,0.1691,0.169,0.1689,0.1689,0.1656,0.1655,0.1655,0,0,0,0,0,0,0,0,0,0,0,0,0,0.1776,0.1794,0.1771,0.1743,0.1741,0.1741,0.1741,0.174,0.1692,0.169,0.1689,0.1688,0.1656,0.1655,0.1655,0.1678,0,0,0.1655,0.1655,0,0,0,0,0,0,0,0,0.1777,0.1775,0.1748,0.1745,0.1742,0.1719,0.1737,0.172,0.1692,0.1709,0.1689,0.1687,0.1678,0.1676,0.1672,0.1677,0.1675,0.1655,0.1654,0.1654,0.1654,0,0,0,0,0,0,0,0.1778,0.1776,0.1758,0.1747,0.1744,0.1735,0.1731,0.1733,0.17,0.1708,0.1704,0.1703,0.1676,0.1672,0.1671,0.1675,0.1655,0.1654,0.1654,0.1654,0.1716,0.1718,0,0,0,0,0,0,0.1785,0.1777,0.1759,0.1757,0.1758,0.1736,0.1731,0.1727,0.17,0.1695,0.1704,0.1701,0.1673,0.1671,0.1669,0.169,0.1654,0.1654,0.1654,0.1714,0.1716,0.1718,0,0,0,0,0,0,0.1785,0.1783,0.176,0.1767,0.1764,0.1737,0.1733,0.1727,0.1723,0.1697,0.1692,0.1705,0.1672,0.167,0.1677,0.1688,0.1654,0.1654,0.1712,0.1715,0.1717,0.1734,0,0,0,0,0,0,0.1786,0.1784,0.1787,0.1768,0.1764,0.1765,0.1734,0.1728,0.1724,0.172,0.1697,0.1692,0.1671,0.1678,0.1677,0.1687,0.1654,0.171,0.1713,0.1716,0.1731,0.1737,0.1741,0,0,0,0,0,0.1787,0.1793,0.1788,0.1786,0.1768,0.1766,0.1763,0.1739,0.1726,0.173,0.1716,0.1693,0.1698,0.1679,0.1677,0.1688,0.1708,0.1712,0.1716,0.1729,0.1735,0.1741,0,0,0,0,0,0,0.1806,0.1789,0.1782,0.1783,0.1779,0.1758,0.1758,0.1748,0.1741,0.1735,0.1711,0.1706,0.1716,0.1713,0.1692,0.1721,0.1702,0.1706,0.1712,0.1718,0.1724,0.1721,0.1654,0,0,0,0,0,0.1814,0.1812,0.18,0.1802,0.18,0.1784,0.1781,0.1768,0.1758,0.1753,0.1738,0.1732,0.1734,0.1733,0.1732,0.1749,0.1757,0.176,0.1766,0.177,0.1771,0.1802,0.1809,0.1731,0.1731,0.1731,0,0,0.1822,0.1813,0.1812,0.1806,0.1797,0.1796,0.1779,0.1777,0.1775,0.1753,0.1748,0.1748,0.1745,0.1755,0.1761,0.1751,0.18,0.1775,0.1778,0.1777,0.1807,0.1814,0.182,0.1734,0.1733,0.1733,0,0,0.1834,0.183,0.183,0.1828,0.1821,0.1812,0.1815,0.1802,0.1794,0.18,0.1784,0.1797,0.1794,0.1795,0.1795,0.1838,0.1826,0.184,0.186,0.189,0.1896,0.1902,0.193,0.1937,0.1843,0.1843,0.1843,0,0.1842,0.1838,0.1833,0.1833,0.1827,0.182,0.1819,0.1818,0.181,0.1811,0.1801,0.1818,0.1813,0.1833,0.1843,0.1846,0.186,0.1828,0.1895,0.19,0.1905,0.1933,0.1941,0.1844,0.1844,0.1844,0.1844,0,0.1851,0.1849,0.185,0.1842,0.1843,0.1842,0.1837,0.1842,0.1835,0.1832,0.1852,0.1857,0.1867,0.1874,0.1865,0.1905,0.1902,0.1894,0.1871,0.1914,0.1941,0.1949,0.1846,0.1846,0.1845,0.1845,0,0,0.1851,0.1854,0.1852,0.1846,0.1844,0.184,0.1849,0.1851,0.1853,0.1866,0.1878,0.1896,0.1905,0.191,0.1913,0.1939,0.1988,0.1931,0.1932,0.1945,0.2056,0.2038,0.2045,0.1987,0.1989,0.199,0.2062,0,0.1851,0.1853,0.1854,0.185,0.1844,0.1846,0.185,0.1856,0.1861,0.1875,0.1902,0.1915,0.1917,0.1927,0.1957,0.1975,0.201,0.197,0.2024,0.2026,0.1994,0.2054,0.1989,0.2046,0.207,0.2071,0.2072,0,0.1846,0.1846,0.1846,0.1841,0.1838,0.1838,0.1839,0.1845,0.1872,0.188,0.1914,0.1931,0.1979,0.1972,0.2042,0.2015,0.2042,0.2059,0.2062,0.2043,0.2024,0.2008,0.206,0.1999,0.2084,0.2083,0.2082,0,0.183,0.1832,0.1829,0.1827,0.1829,0.1828,0.1829,0.1845,0.185,0.1889,0.1905,0.1959,0.1986,0.2036,0.208,0.2064,0.2153,0.2135,0.2151,0.2149,0.2104,0.2096,0.209,0.2195,0.2195,0.2194,0.2194,0,0.1816,0.1807,0.182,0.1814,0.1807,0.1813,0.1811,0.1823,0.1847,0.1863,0.1909,0.1942,0.2002,0.2059,0.2098,0.2155,0.2176,0.2168,0.2173,0.211,0.2102,0.2054,0.2023,0.2197,0.2197,0.2196,0.2196,0,0.1786,0.1799,0.179,0.1796,0.1796,0.1789,0.1792,0.1793,0.1823,0.1851,0.1869,0.1935,0.2013,0.2078,0.2157,0.2172,0.217,0.2244,0.2165,0.2158,0.2099,0.2072,0.2009,0.1949,0.2272,0.2272,0.2272,0,0.176,0.1759,0.1772,0.1766,0.1764,0.1758,0.1754,0.1777,0.1783,0.185,0.1865,0.195,0.2011,0.2124,0.2171,0.2248,0.2179,0.2214,0.2171,0.21,0.2074,0.1982,0.1929,0.2124,0.2123,0.2122,0.2121,0,0.1706,0.1723,0.1725,0.1724,0.1717,0.1715,0.1716,0.172,0.1758,0.1787,0.184,0.1899,0.2019,0.2068,0.2163,0.2198,0.2098,0.2197,0.2144,0.1981,0.186,0.1802,0.2072,0.2113,0.2114,0.2115,0.2115,0.2115,0.1655,0.1654,0.1667,0.1663,0.1663,0.166,0.1642,0.1662,0.1674,0.171,0.1796,0.1856,0.1965,0.2091,0.2109,0.2077,0.2055,0.2026,0.2009,0.1931,0.1834,0.2087,0.2114,0.2115,0.2116,0.2116,0.2117,0,0.1569,0.1591,0.1596,0.159,0.1576,0.1599,0.16,0.1577,0.1576,0.1652,0.1699,0.1797,0.1867,0.1936,0.1962,0.1898,0.1809,0.1843,0.1698,0.1663,0.1917,0.1871,0.182,0.182,0.182,0.182,0.182,0.182,0.1518,0.1509,0.1532,0.1498,0.1499,0.1456,0.1449,0.1439,0.1468,0.1493,0.1535,0.1622,0.1744,0.1828,0.1785,0.1744,0.1593,0.1531,0.1513,0.1696,0.1711,0.1725,0.1674,0.1582,0.1582,0.119,0.1187,0.1185]},{"header":{"parameterUnit":"m.s-1","parameterCategory":2,"la1":30.2991,"la2":30.254,"lo1":-89.0895,"lo2":-89.0444,"dy":0.0017,"dx":0.0017,"nx":28,"ny":28,"refTime":"2025-08-27T03:00:00:Z","depth":"0","parameterNumber":3,"parameterNumberName":"V-component_of_CURRENTS"},"data":[0,0,0,0,0,0,0,0,0,0,0,0,0,0,0,0,0,0,0,0,0,0,0,0,0,0,0,0,0,0,0,0,0,0,0,0,0,0,0,0,0,0,0,0,0,0,0,0,0,0,0,0,0,0,0,0,0,0,0.0042,0.0042,0,0.0026,0.0026,0.0026,0.0006,0.0006,0.0006,0.0006,-0.0016,-0.0017,-0.0017,0,0,0,0,0,0,0,0,0,0,0,0,0,0.0025,0.0026,0.0042,0.0042,0.0042,0.0027,0.0026,0.0026,0.0006,0.0006,0.0006,0.0005,-0.0016,-0.0017,-0.0017,0,0,0,0,0,0,0,0,0,0,0,0,0,0.0022,0.0026,0.0042,0.0031,0.003,0.0027,0.0026,0.0026,0.0006,0.0006,0.0006,0.0005,-0.0016,-0.0016,-0.0017,-0.0015,0,0,-0.0019,-0.0019,0,0,0,0,0,0,0,0,0.0023,0.0023,0.0033,0.0032,0.0031,0.0019,0.0013,0.0012,0.0006,0.0014,0.0006,0.0005,-0.0004,-0.0005,-0.001,-0.0016,-0.0017,-0.0019,-0.0019,-0.002,-0.002,0,0,0,0,0,0,0,0.0023,0.0023,0.0034,0.0033,0.0031,0.0017,0.0017,0.0012,0.0006,0.0013,0.0012,0.0013,-0.0005,-0.0009,-0.001,-0.0017,-0.0019,-0.0019,-0.002,-0.002,0.0011,0.0013,0,0,0,0,0,0,0.003,0.0024,0.0035,0.0034,0.0027,0.0018,0.0017,0.0022,0.0006,0.0003,0.0013,0.0012,-0.0008,-0.0009,-0.0011,0.0014,-0.002,-0.002,-0.002,0.001,0.0012,0.0013,0,0,0,0,0,0,0.0029,0.0031,0.0035,0.0029,0.0029,0.0019,0.0024,0.0022,0.0019,0.0006,0.0003,0.0012,-0.0008,-0.001,-0.0002,0.0013,-0.002,-0.0021,0.0009,0.0011,0.0012,0.005,0,0,0,0,0,0,0.0029,0.0031,0.0034,0.003,0.003,0.004,0.0025,0.0022,0.002,0.0018,0.0005,0.0002,-0.0008,-0.0001,-0.0003,0.0011,-0.0021,0.0007,0.001,0.0012,0.0048,0.0053,0.0058,0,0,0,0,0,0.0028,0.0041,0.0034,0.0035,0.0035,0.004,0.0039,0.0029,0.0021,0.0024,0.002,0.0003,0.0012,-0.0001,-0.0003,0.0011,0.0006,0.0009,0.0012,0.0045,0.0052,0.0058,0,0,0,0,0,0,0.0042,0.004,0.0033,0.0045,0.0044,0.0038,0.004,0.0033,0.0031,0.0029,0.0015,0.0013,0.0026,0.0017,0.0003,0.0029,0.0007,0.001,0.0034,0.004,0.0045,0.0051,-0.0022,0,0,0,0,0,0.0045,0.0049,0.0047,0.0056,0.0056,0.0047,0.0046,0.0041,0.004,0.0039,0.0032,0.003,0.0035,0.0036,0.0036,0.0048,0.0036,0.0058,0.0063,0.0067,0.0073,0.0073,0.0078,0.0022,0.0022,0.0022,0,0,0.0054,0.0052,0.0056,0.0058,0.0054,0.0065,0.0045,0.005,0.0063,0.0037,0.0053,0.0046,0.0043,0.0059,0.0064,0.0052,0.0078,0.0071,0.0074,0.0077,0.0076,0.0081,0.0086,0.0024,0.0023,0.0023,0,0,0.0078,0.0072,0.0083,0.0084,0.0081,0.0079,0.0082,0.0079,0.008,0.0093,0.0083,0.0089,0.009,0.0095,0.0098,0.0133,0.0105,0.0132,0.0161,0.0161,0.0166,0.0169,0.0159,0.0161,0.0135,0.0135,0.0135,0,0.0088,0.0101,0.0088,0.01,0.0104,0.0089,0.0106,0.0109,0.0111,0.0118,0.0104,0.0119,0.0111,0.0138,0.015,0.0144,0.0134,0.0135,0.0167,0.017,0.0173,0.0162,0.0164,0.0137,0.0137,0.0136,0.0136,0,0.012,0.0128,0.0136,0.0144,0.0149,0.016,0.0163,0.0173,0.0168,0.0167,0.0186,0.0179,0.0187,0.0187,0.0177,0.0201,0.0183,0.0172,0.0148,0.0181,0.0167,0.0169,0.014,0.0139,0.0138,0.0138,0,0,0.0147,0.0156,0.0158,0.0167,0.0172,0.0182,0.0208,0.0224,0.0243,0.024,0.0265,0.0269,0.0255,0.0258,0.0247,0.0245,0.0252,0.0218,0.0217,0.0202,0.0243,0.0216,0.0215,0.0242,0.0242,0.0243,0.0223,0,0.0174,0.0199,0.02,0.0231,0.0244,0.0243,0.027,0.0284,0.0286,0.0307,0.0301,0.0316,0.0286,0.029,0.0286,0.0265,0.0258,0.0258,0.0218,0.0217,0.0184,0.0217,0.0212,0.0193,0.0224,0.0225,0.0225,0,0.0205,0.0216,0.0245,0.0271,0.0278,0.0298,0.033,0.0352,0.0374,0.0377,0.0385,0.0376,0.0384,0.0349,0.0327,0.0326,0.0289,0.0264,0.0263,0.0226,0.0194,0.0166,0.0194,0.0099,0.0227,0.0227,0.0226,0,0.0223,0.025,0.0272,0.028,0.0307,0.0328,0.0347,0.0371,0.0397,0.042,0.0439,0.0436,0.0441,0.0404,0.0352,0.0339,0.0318,0.0294,0.0235,0.0232,0.0215,0.021,0.0142,0.0275,0.0275,0.0275,0.0275,0,0.0249,0.0269,0.0282,0.0295,0.0335,0.0346,0.0392,0.0411,0.0445,0.0488,0.0474,0.0509,0.0454,0.0435,0.0377,0.0314,0.0337,0.0247,0.0231,0.0228,0.0224,0.0129,0.008,0.0275,0.0275,0.0275,0.0275,0,0.0268,0.0274,0.0303,0.0331,0.0344,0.0372,0.0422,0.0456,0.0483,0.0541,0.0554,0.0564,0.0544,0.048,0.0421,0.0348,0.0235,0.0259,0.0253,0.0236,0.0084,0.0038,-0.0042,-0.0083,0.0191,0.019,0.0189,0,0.0279,0.0293,0.0324,0.0346,0.036,0.0401,0.0436,0.0472,0.0513,0.0584,0.0619,0.0619,0.0642,0.0539,0.0412,0.0305,0.0219,0.0207,0.0182,0.008,0.0016,-0.0018,-0.0049,0.0173,0.0172,0.0172,0.0171,0,0.03,0.0307,0.0329,0.037,0.0406,0.0453,0.0504,0.0545,0.0603,0.0661,0.0734,0.0762,0.0672,0.0575,0.0411,0.0321,0.0135,0.0191,0.0094,0.0006,-0.0042,-0.0091,0.017,0.0166,0.0167,0.0167,0.0167,0.0168,0.0312,0.0332,0.0358,0.0401,0.0444,0.0503,0.0552,0.0617,0.0699,0.0806,0.0822,0.0891,0.0728,0.0516,0.0366,0.008,0.0095,-0.0001,-0.0046,-0.0069,-0.0118,0.0126,0.0096,0.0096,0.0096,0.0096,0.0096,0,0.0326,0.0351,0.039,0.0443,0.0494,0.0514,0.06,0.066,0.0766,0.0873,0.0951,0.0925,0.0707,0.0464,0.009,-0.0111,-0.0185,-0.0222,-0.0271,-0.0289,-0.0063,-0.0074,-0.0152,-0.0152,-0.0152,-0.0152,-0.0152,-0.0152,0.0333,0.037,0.0393,0.0475,0.0518,0.0595,0.0648,0.0742,0.0832,0.0967,0.103,0.1069,0.088,0.0228,-0.0229,-0.0333,-0.0469,-0.0498,-0.056,-0.0413,-0.0396,-0.0379,-0.0401,-0.0547,-0.0547,-0.0762,-0.0764,-0.0766]}],[{"header":{"parameterUnit":"m.s-1","parameterCategory":2,"la1":30.2991,"la2":30.254,"lo1":-89.0895,"lo2":-89.0444,"dy":0.0017,"dx":0.0017,"nx":28,"ny":28,"refTime":"2025-08-27T03:00:00:Z","depth":"2","parameterNumber":2,"parameterNumberName":"U-component_of_CURRENTS"},"data":[0,0,0,0,0,0,0,0,0,0,0,0,0,0,0,0,0,0,0,0,0,0,0,0,0,0,0,0,0,0,0,0,0,0,0,0,0,0,0,0,0,0,0,0,0,0,0,0,0,0,0,0,0,0,0,0,0,0,0.1597,0.1597,0,0.1558,0.1557,0.1556,0.1515,0.1514,0.1514,0.1514,0.1576,0.1577,0.1579,0,0,0,0,0,0,0,0,0,0,0,0,0,0.1662,0.166,0.1597,0.1597,0.1596,0.1558,0.1557,0.1556,0.1515,0.1514,0.1514,0.1514,0.1575,0.1577,0.158,0,0,0,0,0,0,0,0,0,0,0,0,0,0.1626,0.166,0.1597,0.1574,0.1571,0.1558,0.1557,0.1556,0.1515,0.1514,0.1514,0.1514,0.1574,0.1577,0.158,0.1605,0,0,0.1589,0.159,0,0,0,0,0,0,0,0,0.1628,0.1623,0.1577,0.1575,0.1573,0.1544,0.1602,0.1579,0.1515,0.1533,0.1514,0.1513,0.1577,0.1579,0.1567,0.1608,0.1611,0.1589,0.1591,0.1592,0.1593,0,0,0,0,0,0,0,0.163,0.1625,0.1578,0.1577,0.1575,0.1574,0.1568,0.1597,0.1557,0.1531,0.1529,0.153,0.1576,0.1564,0.1568,0.1612,0.1589,0.1591,0.1593,0.1594,0.1723,0.1725,0,0,0,0,0,0,0.1641,0.1627,0.1579,0.1577,0.1604,0.1574,0.1567,0.1551,0.1554,0.1554,0.153,0.1528,0.1559,0.1565,0.157,0.1634,0.1592,0.1594,0.1596,0.1722,0.1724,0.1726,0,0,0,0,0,0,0.1642,0.1636,0.1581,0.1605,0.1598,0.1573,0.1555,0.155,0.1552,0.1553,0.1555,0.154,0.1559,0.1566,0.1616,0.1636,0.1596,0.1598,0.172,0.1722,0.1725,0.1742,0,0,0,0,0,0,0.1644,0.1636,0.1653,0.1605,0.1597,0.1607,0.1556,0.155,0.1554,0.1551,0.1562,0.1566,0.1559,0.1612,0.1619,0.1639,0.16,0.1717,0.1721,0.1724,0.174,0.1745,0.175,0,0,0,0,0,0.1646,0.1666,0.1653,0.1649,0.1611,0.161,0.1607,0.1585,0.1555,0.1579,0.1575,0.1566,0.1637,0.1616,0.1623,0.1645,0.1716,0.172,0.1724,0.1737,0.1744,0.175,0,0,0,0,0,0,0.1702,0.1663,0.1647,0.1654,0.1651,0.1605,0.1624,0.1599,0.1608,0.1605,0.1592,0.1598,0.1644,0.1653,0.163,0.1694,0.1674,0.168,0.1682,0.1689,0.1694,0.1684,0.1603,0,0,0,0,0,0.1723,0.1724,0.1693,0.1702,0.1702,0.1664,0.1666,0.1646,0.1637,0.1638,0.1638,0.1647,0.1664,0.1684,0.1704,0.1748,0.1746,0.1768,0.1773,0.1777,0.1777,0.1792,0.1798,0.1738,0.1738,0.1738,0,0,0.174,0.1726,0.1723,0.1716,0.1701,0.1697,0.1664,0.167,0.1664,0.1649,0.1658,0.1671,0.1682,0.1718,0.1741,0.173,0.1796,0.1782,0.1785,0.1783,0.1797,0.1802,0.1807,0.1741,0.174,0.174,0,0,0.1765,0.1768,0.177,0.1774,0.177,0.1748,0.1756,0.1726,0.1719,0.1735,0.1715,0.1745,0.177,0.1777,0.1782,0.1838,0.1822,0.1847,0.1867,0.1881,0.1886,0.1889,0.1896,0.19,0.185,0.185,0.185,0,0.1788,0.1779,0.1778,0.1784,0.1784,0.177,0.1767,0.1763,0.1754,0.1755,0.1751,0.1777,0.1793,0.1822,0.1834,0.1848,0.1848,0.1835,0.1885,0.1889,0.1892,0.1898,0.1903,0.1852,0.1852,0.1851,0.1851,0,0.1795,0.1806,0.1814,0.1802,0.1815,0.1821,0.1808,0.1822,0.1808,0.1794,0.1829,0.1846,0.1861,0.1874,0.1867,0.1903,0.1892,0.1886,0.1861,0.1899,0.1904,0.1908,0.1854,0.1853,0.1853,0.1852,0,0,0.178,0.1807,0.181,0.1813,0.1823,0.1823,0.1837,0.1838,0.1835,0.1855,0.1858,0.1896,0.1902,0.1911,0.1918,0.1932,0.1958,0.1918,0.1919,0.191,0.1982,0.1904,0.1901,0.1953,0.1954,0.1955,0.1975,0,0.1776,0.1791,0.1805,0.1817,0.1819,0.1831,0.1838,0.1848,0.1856,0.1868,0.1896,0.1913,0.1917,0.1928,0.1947,0.1958,0.197,0.1953,0.196,0.196,0.1873,0.1903,0.1775,0.1776,0.1979,0.198,0.198,0,0.1758,0.1777,0.1789,0.1814,0.1814,0.1821,0.1833,0.1841,0.1869,0.1877,0.191,0.1927,0.1971,0.196,0.2002,0.1988,0.1987,0.199,0.1991,0.1912,0.1889,0.1773,0.1775,0.1987,0.1986,0.1986,0.1985,0,0.1726,0.1758,0.1769,0.1779,0.1807,0.1815,0.1822,0.1844,0.185,0.1889,0.1905,0.1951,0.1978,0.1997,0.2018,0.2009,0.2047,0.2037,0.1966,0.196,0.1849,0.1832,0.2053,0.2053,0.2053,0.2053,0.2053,0,0.1698,0.1709,0.1759,0.1766,0.1778,0.1799,0.1805,0.1823,0.1848,0.1864,0.1911,0.194,0.1987,0.2017,0.2026,0.201,0.2058,0.197,0.196,0.1853,0.1836,0.2017,0.2012,0.2054,0.2054,0.2054,0.2054,0,0.1649,0.1684,0.1707,0.1751,0.1764,0.1769,0.1792,0.1795,0.1828,0.1854,0.1872,0.1937,0.1977,0.201,0.2042,0.201,0.2009,0.1987,0.1853,0.1826,0.191,0.1907,0.1909,0.1906,0.1904,0.1902,0.1901,0,0.1621,0.1629,0.1694,0.1708,0.1728,0.1743,0.1749,0.178,0.1787,0.1852,0.1865,0.1922,0.1936,0.1953,0.1927,0.1912,0.1969,0.1764,0.1719,0.1905,0.1896,0.1896,0.1896,0.1588,0.1584,0.1581,0.1579,0,0.1571,0.1603,0.1626,0.1662,0.1681,0.1698,0.1714,0.1714,0.1755,0.1758,0.1785,0.1803,0.1841,0.1764,0.1743,0.1721,0.1755,0.1694,0.1934,0.1636,0.1601,0.1593,0.1604,0.155,0.1553,0.1555,0.1556,0.1557,0.154,0.154,0.1577,0.1595,0.1627,0.1636,0.1618,0.1635,0.1616,0.1599,0.1664,0.1623,0.1643,0.1532,0.1494,0.147,0.1577,0.1506,0.1517,0.1531,0.1481,0.1444,0.1353,0.1355,0.1356,0.1358,0.1359,0,0.1468,0.1474,0.1499,0.1521,0.1516,0.1573,0.1576,0.1528,0.1477,0.1471,0.1443,0.1278,0.1242,0.1285,0.1202,0.1182,0.1184,0.114,0.1143,0.1172,0.1198,0.1132,0.0912,0.091,0.0909,0.0907,0,0,0.1429,0.1404,0.1408,0.1386,0.1418,0.1397,0.1388,0.1337,0.1304,0.1161,0.1101,0.1162,0.1225,0.1036,0.102,0.096,0.1057,0.0922,0.1284,0.1316,0.134,0.1413,0.1345,0,0,0,0,0]},{"header":{"parameterUnit":"m.s-1","parameterCategory":2,"la1":30.2991,"la2":30.254,"lo1":-89.0895,"lo2":-89.0444,"dy":0.0017,"dx":0.0017,"nx":28,"ny":28,"refTime":"2025-08-27T03:00:00:Z","depth":"2","parameterNumber":3,"parameterNumberName":"V-component_of_CURRENTS"},"data":[0,0,0,0,0,0,0,0,0,0,0,0,0,0,0,0,0,0,0,0,0,0,0,0,0,0,0,0,0,0,0,0,0,0,0,0,0,0,0,0,0,0,0,0,0,0,0,0,0,0,0,0,0,0,0,0,0,0,-0.0017,-0.0017,0,-0.0017,-0.0017,-0.0017,-0.0025,-0.0025,-0.0025,-0.0025,-0.0058,-0.0058,-0.0059,0,0,0,0,0,0,0,0,0,0,0,0,0,-0.0052,-0.0051,-0.0017,-0.0017,-0.0017,-0.0016,-0.0017,-0.0017,-0.0025,-0.0025,-0.0025,-0.0025,-0.0057,-0.0058,-0.0059,0,0,0,0,0,0,0,0,0,0,0,0,0,-0.0044,-0.0051,-0.0017,-0.002,-0.002,-0.0016,-0.0017,-0.0017,-0.0025,-0.0025,-0.0025,-0.0025,-0.0057,-0.0058,-0.0059,-0.0064,0,0,-0.0063,-0.0064,0,0,0,0,0,0,0,0,-0.0044,-0.0043,-0.0019,-0.0019,-0.002,-0.0019,-0.0041,-0.0034,-0.0025,-0.0024,-0.0025,-0.0025,-0.0047,-0.0049,-0.005,-0.0066,-0.0067,-0.0063,-0.0064,-0.0064,-0.0065,0,0,0,0,0,0,0,-0.0045,-0.0043,-0.0018,-0.0019,-0.0019,-0.003,-0.0029,-0.004,-0.0037,-0.0024,-0.0025,-0.0022,-0.0047,-0.0049,-0.0051,-0.0068,-0.0063,-0.0064,-0.0065,-0.0065,-0.0054,-0.0053,0,0,0,0,0,0,-0.004,-0.0043,-0.0018,-0.0018,-0.0031,-0.0029,-0.0028,-0.0021,-0.0036,-0.0038,-0.0022,-0.0022,-0.0047,-0.005,-0.0052,-0.0035,-0.0064,-0.0065,-0.0066,-0.0055,-0.0053,-0.0052,0,0,0,0,0,0,-0.0041,-0.0038,-0.0018,-0.003,-0.0028,-0.0028,-0.002,-0.0021,-0.0022,-0.0033,-0.0036,-0.0022,-0.0047,-0.0051,-0.005,-0.0037,-0.0066,-0.0067,-0.0056,-0.0054,-0.0053,-0.0015,0,0,0,0,0,0,-0.0042,-0.0038,-0.0036,-0.0029,-0.0027,-0.0016,-0.002,-0.002,-0.0019,-0.002,-0.0035,-0.0038,-0.0047,-0.0048,-0.0051,-0.0039,-0.0068,-0.0057,-0.0055,-0.0053,-0.0018,-0.0013,-0.0008,0,0,0,0,0,-0.0043,-0.0032,-0.0036,-0.0033,-0.0023,-0.0015,-0.0015,-0.0017,-0.0019,-0.0019,-0.002,-0.0037,-0.0038,-0.0048,-0.0052,-0.004,-0.0058,-0.0056,-0.0053,-0.002,-0.0014,-0.0008,0,0,0,0,0,0,-0.0039,-0.0032,-0.0036,-0.0022,-0.0021,-0.0016,-0.0014,-0.0016,-0.0017,-0.0016,-0.0029,-0.0032,-0.0025,-0.0036,-0.0047,-0.0029,-0.0049,-0.0047,-0.0022,-0.0016,-0.0012,-0.0005,-0.0069,0,0,0,0,0,-0.004,-0.0032,-0.0029,-0.0017,-0.0017,-0.0017,-0.0016,-0.0015,-0.0013,-0.0014,-0.002,-0.0022,-0.0018,-0.002,-0.0023,-0.0018,-0.0038,-0.001,-0.0006,-0.0002,0.0003,-0.0017,-0.0015,-0.0045,-0.0045,-0.0045,0,0,-0.0033,-0.0029,-0.0024,-0.0017,-0.0016,-0.0004,-0.0017,-0.001,0.0006,-0.0017,-0.0002,-0.001,-0.0013,-0.0001,0.0001,-0.001,-0.0002,0.0001,0.0005,0.0007,-0.0015,-0.0012,-0.001,-0.0043,-0.0043,-0.0044,0,0,-0.0013,-0.0015,-0.0005,-0.0,0.0003,0.0005,0.0008,0.0011,0.0015,0.0026,0.0021,0.0025,0.0022,0.0028,0.0031,0.006,0.0024,0.0057,0.0085,0.0065,0.0067,0.0068,0.0048,0.0047,0.006,0.006,0.006,0,-0.0008,0.0008,-0.0,0.0013,0.0023,0.0012,0.003,0.0035,0.0041,0.0049,0.0036,0.0049,0.004,0.0065,0.0078,0.007,0.0048,0.0061,0.007,0.0071,0.0071,0.005,0.0049,0.0062,0.0062,0.0061,0.0061,0,0.0017,0.0032,0.0041,0.0055,0.0062,0.0077,0.0083,0.0092,0.0091,0.0094,0.0109,0.01,0.0109,0.0108,0.0101,0.0112,0.0091,0.0076,0.0052,0.0076,0.0053,0.0051,0.0065,0.0064,0.0063,0.0063,0,0,0.0031,0.0053,0.0057,0.0073,0.0086,0.0099,0.0126,0.0143,0.0164,0.0159,0.0182,0.0186,0.0172,0.0174,0.0164,0.0147,0.0133,0.0114,0.0112,0.0089,0.0083,0.0053,0.0047,0.0111,0.0111,0.0111,0.0064,0,0.0052,0.0084,0.0092,0.0133,0.0151,0.0158,0.0186,0.0202,0.0205,0.0223,0.0214,0.0228,0.0201,0.0205,0.0186,0.0155,0.0129,0.0147,0.0068,0.0065,0.003,0.0044,0.005,0.0008,0.0062,0.0061,0.0061,0,0.0074,0.0094,0.0131,0.0175,0.0184,0.0209,0.0248,0.027,0.0289,0.0291,0.0295,0.0284,0.0285,0.0245,0.0195,0.0205,0.0145,0.0108,0.0105,0.0062,0.0031,-0.0008,0.0001,0.0057,0.0057,0.0058,0.0058,0,0.0082,0.0126,0.0156,0.0171,0.0214,0.024,0.0263,0.0289,0.0315,0.0333,0.035,0.0336,0.0339,0.0272,0.0204,0.0194,0.013,0.0108,0.0022,0.0019,0.0003,-0.0001,0.005,0.0051,0.0051,0.0051,0.0051,0,0.0101,0.0132,0.0165,0.0185,0.0237,0.0257,0.0306,0.0328,0.036,0.0399,0.0384,0.041,0.0341,0.0302,0.022,0.0123,0.0141,0.0029,0.0006,0.0017,0.0015,0.0041,0.004,0.0049,0.0049,0.005,0.005,0,0.011,0.0128,0.0174,0.0222,0.0242,0.0278,0.0339,0.0373,0.0399,0.0451,0.0463,0.0465,0.0417,0.0335,0.0233,0.015,0.0057,0.0008,0.0026,0.0006,-0.0047,-0.0045,-0.0087,-0.0088,-0.0089,-0.009,-0.0091,0,0.0121,0.014,0.0197,0.0228,0.0254,0.0307,0.0348,0.0389,0.0427,0.0489,0.0518,0.0497,0.0483,0.0331,0.0187,0.0038,0.0029,-0.0063,-0.0081,-0.0042,-0.0061,-0.0056,-0.0053,-0.0087,-0.0087,-0.0088,-0.0088,0,0.0145,0.0159,0.0191,0.0248,0.0297,0.0354,0.0414,0.0451,0.0507,0.0545,0.0592,0.0586,0.0464,0.0324,0.0125,0.0025,-0.0034,-0.0082,-0.0042,-0.0054,-0.0047,-0.0063,-0.0059,-0.0094,-0.0093,-0.0093,-0.0093,-0.0092,0.0168,0.0185,0.022,0.0274,0.0332,0.0396,0.0442,0.0505,0.0564,0.0635,0.0628,0.062,0.0481,0.0221,0.0066,-0.0092,-0.0092,-0.0153,-0.0149,-0.0145,-0.0138,-0.0133,-0.0195,-0.0195,-0.0195,-0.0195,-0.0195,0,0.019,0.0202,0.0248,0.0308,0.0361,0.0402,0.0486,0.0527,0.0596,0.0654,0.068,0.0533,0.038,0.023,-0.0016,-0.017,-0.0167,-0.021,-0.0169,-0.0164,-0.0159,-0.015,-0.0212,-0.0212,-0.0213,-0.0213,0,0,0.0202,0.0226,0.0237,0.0314,0.037,0.0449,0.05,0.0568,0.0617,0.0653,0.0655,0.0629,0.043,0.0249,0.0053,-0.0076,-0.0083,-0.0102,-0.0077,-0.0002,0.0006,-0.0119,-0.01,0,0,0,0,0]}],[{"header":{"parameterUnit":"m.s-1","parameterCategory":2,"la1":30.2991,"la2":30.254,"lo1":-89.0895,"lo2":-89.0444,"dy":0.0017,"dx":0.0017,"nx":28,"ny":28,"refTime":"2025-08-27T03:00:00:Z","depth":"4","parameterNumber":2,"parameterNumberName":"U-component_of_CURRENTS"},"data":[0,0,0,0,0,0,0,0,0,0,0,0,0,0,0,0,0,0,0,0,0,0,0,0,0,0,0,0,0,0,0,0,0,0,0,0,0,0,0,0,0,0,0,0,0,0,0,0,0,0,0,0,0,0,0,0,0,0,0.0547,0.0547,0,0.0563,0.0563,0.0562,0.0572,0.0573,0.0574,0.0575,0.0583,0.0582,0.0582,0,0,0,0,0,0,0,0,0,0,0,0,0,0.0397,0.04,0.0547,0.0547,0.0548,0.0563,0.0563,0.0562,0.0572,0.0573,0.0574,0.0575,0.0583,0.0582,0.0582,0,0,0,0,0,0,0,0,0,0,0,0,0,0.0436,0.0401,0.0546,0.056,0.0562,0.0563,0.0562,0.0562,0.0572,0.0573,0.0574,0.0575,0.0583,0.0582,0.0582,0.0557,0,0,0.058,0.0579,0,0,0,0,0,0,0,0,0.0434,0.0441,0.0557,0.0559,0.0562,0.0573,0.0513,0.0562,0.0572,0.0561,0.0575,0.0576,0.0582,0.0582,0.0573,0.0557,0.0558,0.058,0.0579,0.0579,0.0579,0,0,0,0,0,0,0,0.0431,0.0439,0.0546,0.0558,0.0561,0.0522,0.0529,0.0521,0.056,0.0562,0.0565,0.0577,0.0583,0.0573,0.0573,0.0558,0.058,0.0579,0.0579,0.0579,0.0545,0.0545,0,0,0,0,0,0,0.0449,0.0438,0.0546,0.0547,0.0507,0.0525,0.0533,0.0562,0.0561,0.0563,0.0576,0.0578,0.0574,0.0574,0.0574,0.0594,0.0579,0.0578,0.0578,0.0546,0.0545,0.0544,0,0,0,0,0,0,0.0446,0.046,0.0545,0.0497,0.0506,0.0529,0.056,0.0562,0.0579,0.0573,0.0574,0.0595,0.0575,0.0575,0.0617,0.0593,0.0578,0.0578,0.0546,0.0545,0.0545,0.0604,0,0,0,0,0,0,0.0442,0.0459,0.047,0.0499,0.051,0.0542,0.056,0.0562,0.0587,0.059,0.0589,0.0589,0.0576,0.0618,0.0616,0.0592,0.0577,0.0547,0.0546,0.0545,0.0603,0.0605,0.0607,0,0,0,0,0,0.0437,0.0426,0.047,0.0483,0.0531,0.0542,0.0542,0.0556,0.0588,0.0578,0.0621,0.059,0.0608,0.062,0.0617,0.0591,0.0547,0.0546,0.0545,0.0601,0.0605,0.0607,0,0,0,0,0,0,0.0354,0.0428,0.0477,0.049,0.0526,0.0547,0.0525,0.0571,0.0594,0.0608,0.0618,0.0621,0.0627,0.0611,0.0624,0.0574,0.0557,0.0556,0.0601,0.0604,0.0606,0.0616,0.0577,0,0,0,0,0,0.0352,0.0378,0.0442,0.0459,0.0466,0.0512,0.0519,0.0552,0.0585,0.0596,0.0597,0.0602,0.0612,0.0619,0.0599,0.0603,0.0593,0.0571,0.0574,0.0576,0.058,0.0581,0.0585,0.0541,0.0541,0.0541,0,0,0.0333,0.0374,0.0393,0.0445,0.0462,0.0483,0.0514,0.0532,0.0565,0.0593,0.0603,0.0609,0.0614,0.061,0.0607,0.0605,0.0581,0.0575,0.0578,0.058,0.058,0.0585,0.0589,0.054,0.054,0.054,0,0,0.03,0.0336,0.035,0.0379,0.0431,0.0454,0.0474,0.0509,0.0526,0.0571,0.0589,0.061,0.0603,0.0606,0.0615,0.0621,0.0589,0.0589,0.0622,0.0623,0.0627,0.0631,0.0622,0.0624,0.0597,0.0598,0.0598,0,0.0279,0.0321,0.0349,0.037,0.039,0.0451,0.0472,0.0496,0.0548,0.0564,0.0574,0.0596,0.0598,0.0631,0.0638,0.0625,0.0624,0.062,0.063,0.0633,0.0636,0.0625,0.0627,0.06,0.06,0.06,0.0599,0,0.0273,0.0308,0.03,0.0366,0.0377,0.0398,0.0451,0.0464,0.0503,0.0541,0.0568,0.0593,0.0612,0.0601,0.0639,0.0651,0.0642,0.0632,0.0632,0.0645,0.0631,0.0633,0.0604,0.0603,0.0602,0.0602,0,0,0.0255,0.0293,0.0308,0.0331,0.0384,0.0398,0.0424,0.0468,0.0509,0.0534,0.057,0.0601,0.0625,0.0637,0.066,0.0677,0.0706,0.068,0.0679,0.0687,0.0711,0.0707,0.0707,0.0711,0.0712,0.0712,0.0694,0,0.0259,0.0286,0.0312,0.0347,0.0352,0.0397,0.0424,0.0474,0.0509,0.0543,0.0582,0.0624,0.0638,0.0674,0.0689,0.0711,0.0712,0.0712,0.0682,0.0681,0.0689,0.0709,0.0714,0.0694,0.0695,0.0695,0.0695,0,0.0269,0.0282,0.0304,0.0343,0.0352,0.0392,0.0436,0.0478,0.0538,0.0568,0.061,0.0643,0.0697,0.0697,0.0728,0.0736,0.0725,0.0727,0.0726,0.0703,0.0679,0.0675,0.0697,0.0696,0.0696,0.0696,0.0696,0,0.0242,0.0286,0.0298,0.0315,0.0363,0.0389,0.0433,0.0491,0.0522,0.0601,0.0628,0.0682,0.0727,0.0729,0.0755,0.0748,0.0771,0.0748,0.0718,0.0717,0.0701,0.0697,0.0736,0.0736,0.0736,0.0736,0.0736,0,0.023,0.0254,0.0298,0.0312,0.0349,0.0391,0.0446,0.0497,0.0558,0.0603,0.066,0.069,0.0743,0.0763,0.0759,0.076,0.0769,0.0729,0.0718,0.0723,0.0722,0.0701,0.0698,0.0735,0.0735,0.0735,0.0736,0,0.0202,0.0231,0.0254,0.0311,0.0337,0.0374,0.0455,0.0485,0.0566,0.0619,0.065,0.071,0.0761,0.0786,0.0801,0.0773,0.0766,0.0748,0.0761,0.0749,0.0701,0.07,0.0706,0.0706,0.0706,0.0706,0.0706,0,0.0187,0.0192,0.0255,0.0271,0.0306,0.0366,0.0401,0.0486,0.0517,0.062,0.0633,0.071,0.0748,0.076,0.0787,0.0783,0.0765,0.0745,0.0718,0.0712,0.0701,0.07,0.0699,0.0706,0.0706,0.0706,0.0706,0,0.0149,0.0183,0.02,0.0235,0.0275,0.0307,0.0375,0.0394,0.0495,0.0563,0.0625,0.0664,0.0715,0.0744,0.0767,0.0747,0.076,0.0743,0.0742,0.0716,0.0711,0.07,0.0699,0.0705,0.0705,0.0705,0.0705,0,0.0133,0.0135,0.0161,0.0194,0.0234,0.0254,0.029,0.0346,0.0397,0.0532,0.0545,0.0632,0.0708,0.0723,0.073,0.0745,0.0719,0.0678,0.0679,0.068,0.0686,0.0677,0.0657,0,0,0,0,0,0.0107,0.0103,0.0114,0.0146,0.0182,0.0208,0.0269,0.0304,0.041,0.0446,0.0507,0.0561,0.062,0.0645,0.0655,0.069,0.07,0.0695,0.0646,0.0702,0.0703,0.0715,0,0,0,0,0,0,0.0086,0.0091,0.0093,0.0102,0.0118,0.0146,0.0186,0.0243,0.0277,0.0394,0.0426,0.0524,0.0577,0.0618,0.0644,0.0655,0.0612,0.0755,0.0753,0.0702,0.0703,0.0703,0.0715,0,0,0,0,0]},{"header":{"parameterUnit":"m.s-1","parameterCategory":2,"la1":30.2991,"la2":30.254,"lo1":-89.0895,"lo2":-89.0444,"dy":0.0017,"dx":0.0017,"nx":28,"ny":28,"refTime":"2025-08-27T03:00:00:Z","depth":"4","parameterNumber":3,"parameterNumberName":"V-component_of_CURRENTS"},"data":[0,0,0,0,0,0,0,0,0,0,0,0,0,0,0,0,0,0,0,0,0,0,0,0,0,0,0,0,0,0,0,0,0,0,0,0,0,0,0,0,0,0,0,0,0,0,0,0,0,0,0,0,0,0,0,0,0,0,0.0108,0.0108,0,0.0122,0.0122,0.0122,0.0148,0.0148,0.0148,0.0148,0.0165,0.0165,0.0165,0,0,0,0,0,0,0,0,0,0,0,0,0,0.0143,0.0142,0.0108,0.0108,0.0108,0.0122,0.0122,0.0123,0.0148,0.0148,0.0148,0.0148,0.0165,0.0165,0.0165,0,0,0,0,0,0,0,0,0,0,0,0,0,0.0142,0.0142,0.0108,0.012,0.0121,0.0122,0.0122,0.0123,0.0147,0.0148,0.0148,0.0149,0.0165,0.0165,0.0165,0.0159,0,0,0.0166,0.0166,0,0,0,0,0,0,0,0,0.0142,0.0141,0.0118,0.0119,0.0121,0.0131,0.0141,0.0134,0.0147,0.014,0.0148,0.0149,0.0152,0.0153,0.0158,0.016,0.016,0.0166,0.0166,0.0166,0.0166,0,0,0,0,0,0,0,0.0142,0.014,0.0116,0.0118,0.012,0.0139,0.0139,0.014,0.0145,0.0141,0.0142,0.014,0.0153,0.0158,0.0159,0.0161,0.0166,0.0166,0.0166,0.0167,0.0143,0.0142,0,0,0,0,0,0,0.0133,0.014,0.0115,0.0116,0.013,0.0137,0.0138,0.0129,0.0145,0.0148,0.0139,0.0141,0.0157,0.0159,0.0159,0.0144,0.0166,0.0167,0.0167,0.0143,0.0142,0.0142,0,0,0,0,0,0,0.0133,0.013,0.0115,0.0127,0.0126,0.0136,0.0127,0.0129,0.0137,0.0144,0.0147,0.0145,0.0158,0.0159,0.015,0.0145,0.0167,0.0167,0.0144,0.0143,0.0142,0.0118,0,0,0,0,0,0,0.0134,0.013,0.0129,0.0126,0.0125,0.0123,0.0126,0.0129,0.0134,0.0136,0.0149,0.0151,0.0158,0.0149,0.015,0.0146,0.0167,0.0145,0.0144,0.0142,0.012,0.0116,0.0113,0,0,0,0,0,0.0135,0.014,0.0129,0.0126,0.012,0.0123,0.0125,0.0135,0.0134,0.0143,0.0135,0.0151,0.014,0.0148,0.015,0.0145,0.0146,0.0144,0.0143,0.0121,0.0117,0.0113,0,0,0,0,0,0,0.0161,0.0142,0.013,0.0129,0.0125,0.0127,0.0138,0.0134,0.0136,0.0135,0.0139,0.014,0.0133,0.0137,0.0146,0.0133,0.0147,0.0145,0.013,0.0126,0.0123,0.0126,0.0167,0,0,0,0,0,0.016,0.0155,0.014,0.0139,0.0138,0.0133,0.0137,0.0136,0.0133,0.0135,0.0142,0.0138,0.0126,0.0124,0.0125,0.0115,0.0109,0.0112,0.0109,0.0106,0.0108,0.0075,0.0069,0.0136,0.0136,0.0136,0,0,0.017,0.0158,0.0156,0.0143,0.0143,0.0142,0.0138,0.0142,0.0138,0.0135,0.0142,0.0132,0.012,0.011,0.0107,0.0113,0.0084,0.0104,0.0101,0.0105,0.0073,0.0066,0.0061,0.0134,0.0135,0.0135,0,0,0.0187,0.0174,0.0175,0.017,0.016,0.0155,0.0153,0.0151,0.0151,0.0141,0.0133,0.0113,0.0113,0.0097,0.0086,0.0062,0.0069,0.0066,0.005,0.0018,0.0012,0.0007,-0.0006,-0.0013,0.0062,0.0061,0.0061,0,0.0199,0.019,0.0179,0.0178,0.0174,0.0158,0.0159,0.0154,0.0149,0.014,0.0144,0.0113,0.0104,0.0069,0.0056,0.0056,0.0044,0.0067,0.0013,0.0008,0.0003,-0.0009,-0.0016,0.006,0.006,0.006,0.0061,0,0.0211,0.0206,0.021,0.0194,0.0193,0.0191,0.0174,0.0173,0.0162,0.0149,0.0123,0.0101,0.0081,0.0069,0.0052,0.0011,0.0017,0.0015,0.0025,-0.0005,-0.0016,-0.0022,0.0058,0.0059,0.0059,0.0059,0,0,0.0228,0.0218,0.022,0.0213,0.0197,0.0196,0.0187,0.0169,0.0157,0.0142,0.0124,0.0082,0.0066,0.0052,0.0029,-0.0009,-0.006,-0.0016,-0.0017,-0.0027,-0.0122,-0.0106,-0.0111,-0.0075,-0.0076,-0.0077,-0.0116,0,0.0238,0.0238,0.0231,0.023,0.0225,0.0208,0.0202,0.0182,0.0162,0.0145,0.0102,0.0081,0.006,0.0042,-0.0,-0.004,-0.0078,-0.0048,-0.0094,-0.0095,-0.0075,-0.0118,-0.0081,-0.012,-0.0122,-0.0123,-0.0124,0,0.0248,0.0243,0.0245,0.0234,0.0233,0.0231,0.0209,0.0201,0.0166,0.0151,0.0114,0.0088,0.0032,0.0019,-0.0064,-0.0045,-0.0087,-0.012,-0.0122,-0.0101,-0.009,-0.0086,-0.0135,-0.0134,-0.0133,-0.0132,-0.0132,0,0.0257,0.0253,0.0254,0.025,0.0237,0.0235,0.0228,0.0201,0.0193,0.0153,0.0142,0.008,0.0053,-0.0013,-0.0081,-0.0077,-0.0169,-0.0167,-0.019,-0.0189,-0.0179,-0.0173,-0.0233,-0.0233,-0.0233,-0.0233,-0.0232,0,0.0258,0.0262,0.0258,0.0257,0.0255,0.0245,0.024,0.0224,0.0203,0.0193,0.0147,0.0122,0.0039,-0.0019,-0.0081,-0.0152,-0.0168,-0.0199,-0.0205,-0.0187,-0.0182,-0.0183,-0.0176,-0.0234,-0.0234,-0.0233,-0.0233,0,0.0265,0.0263,0.0268,0.0263,0.026,0.026,0.0258,0.0255,0.0234,0.022,0.021,0.0148,0.0078,0.0,-0.0104,-0.0144,-0.0218,-0.024,-0.0207,-0.0209,-0.0213,-0.0207,-0.0264,-0.0264,-0.0264,-0.0264,-0.0264,0,0.0264,0.0267,0.0277,0.0281,0.0279,0.0279,0.0281,0.0269,0.0266,0.0235,0.0228,0.0163,0.0116,-0.0009,-0.0097,-0.0203,-0.022,-0.0253,-0.0246,-0.022,-0.022,-0.0214,-0.0209,-0.0264,-0.0264,-0.0264,-0.0264,0,0.0262,0.0276,0.0282,0.0292,0.0298,0.0309,0.031,0.0309,0.0297,0.0282,0.0242,0.0176,0.01,-0.0,-0.0083,-0.0164,-0.0229,-0.0252,-0.0253,-0.0247,-0.022,-0.0219,-0.0214,-0.0263,-0.0264,-0.0264,-0.0264,0,0.0266,0.0274,0.0289,0.0292,0.0315,0.0331,0.033,0.0323,0.0318,0.0285,0.0269,0.0187,0.0132,0.0019,-0.0062,-0.0133,-0.0148,-0.017,-0.0176,-0.0177,-0.0141,-0.0094,-0.0111,0,0,0,0,0,0.0258,0.0266,0.028,0.0291,0.0324,0.0332,0.0346,0.0343,0.033,0.0311,0.0292,0.0223,0.0107,0.0046,-0.002,-0.0061,-0.0163,-0.0142,-0.0191,-0.0262,-0.0262,-0.0234,0,0,0,0,0,0,0.0252,0.0271,0.0276,0.0296,0.0306,0.0337,0.0352,0.0343,0.0326,0.0305,0.0242,0.0207,0.0091,0.0147,-0.0022,-0.0046,-0.0085,-0.02,-0.0201,-0.0262,-0.0262,-0.0262,-0.0234,0,0,0,0,0]}]]